Terminal Aerodrome Forecast
Issued by NWS Paducah, KY

Home | Current Version | Previous Version | Text Only | Print | Product List | Glossary On
Versions: 1 2 3 4 5 6 7 8 9 10 11 12 13 14 15 16 17 18 19 20 21 22 23 24 25 26
028
FTUS43 KPAH 240807 AAA
TAFPAH
TAF AMD
KPAH 240807Z 2408/2506 23003KT P6SM SKC
      TEMPO 2408/2411 BKN025
     FM241500 28008KT P6SM FEW030
     FM242300 00000KT P6SM SKC=

USA.gov is the U.S. government's official web portal to all federal, state and local government web resources and services.